Accueil
METAR-TAF:

METAR-TAF

Aéroports :

Diepholz, Allemagne

latitude: 52-35N, longitude: 008-21E, altitude: 39 m

Observation

Le bulletin a été fait il y a 16 heures et 38 minutes, à 09:20 UTC
Vent 13 kt de ouest
Température 20°C
Humidité 64%
Pression 1013 hPa
Visibilité 10 km ou plus
Nuages fragmentés à une hauteur de 2500 ft
Nuages fragmentés à une hauteur de 15000 ft

METAR: ETND 230920Z 28013KT 9999 BKN025 BKN150 20/13 Q1013 BLU

Heure: 03:58 (01:58 UTC)


TAF: absent

Observations et prévisions météorologiques de plus de 4000 aéroports (messages METAR et TAF).

Les stations disponibles sont représentées par des disques jaunes et rouges sur la carte.

Passer la souris dessus pour voir le nom de la station.

Cliquer dessus pour voir les observations et prévisions météorologiques.

Pour changer de carte: cliquez sur les boutons verts avec une croix noire pour zoomer, sur le bouton vert avec un tiret pour effectuer un zoom arrière, ou sur les flèches vertes pour les cartes adjacentes.


METAR-TAF: